Weather in Novonezhino

Russia / Primorsky Krai     43°13′00″N   132°36′03″E
temp.,
°C
wind,
m/s
gust,
m/s
humid.,
%
clouds,
%
prec.,
mm/h
press.,
hPa
HPBL,
m
12 may, wed
wed1201:00+5se2293100 0.0 102033
04:00+4ese249479 0.0 102081
07:00+5ese248823 0.0 1019115
10:00+13sse485465 0.0 1018818
13:00+15s61048100 0.0 10171132
16:00+13s51161100 0.0 10151023
19:00+10se31189100 0.4 1015710
22:00+9sse31092100 0.4 1016491
13 may, thu
thu1301:00+8se2695100 0.0 1016220
04:00+7se2398100 0.0 101573
07:00+8ese2393100 0.0 101589
10:00+14s3661100 0.0 1015921
13:00+17sw454992 0.0 10141043
16:00+15sw3556100 0.0 1013560
19:00+13wsw1369100 0.0 1013161
22:00+9ene11838 0.0 101410
14 may, fri
fri1401:00+8ese11805 0.0 101410
04:00+8e118017 0.0 101410
07:00+9e11775 0.0 101425
10:00+17sw125597 0.0 1014473
13:00+19wsw345244 0.0 1013678
16:00+17sw3657100 0.0 1012570
19:00+13sw1476100 0.0 1013163
22:00+11sse1183100 0.0 101437
15 may, sat
sat1501:00+11sse2279100 0.0 101263
04:00+11se2488100 0.1 1011149
07:00+12se2493100 0.0 1010179
10:00+17s4768100 0.0 1010865
13:00+21ssw57579 0.0 1008902
16:00+21sw466126 0.0 1006804
19:00+15wsw128698 0.0 1008302
22:00+13n3895100 0.9 1010479
16 may, sun
sun1601:00+11ne2589100 0.4 1009186
04:00+10ne1290100 0.6 100946
07:00+10ne1290100 0.1 100953
10:00+12nne1178100 0.2 1008211
13:00+18wnw2248100 0.0 10071072
16:00+17wsw3350100 0.0 1006808
19:00+12ssw1269100 0.0 100599
22:00+10nne0173100 0.0 100610